DO9LL-1 Weather Reports


Display with metric or nautical units.
time (UTC)temp
F
wind
direction
speed
MPH
gust
MPH
rain 1hr
in
rain 24hr
in
rain mn
in
humidity
%
barometer
mb
20260903121738 68 265 4.0 8.0 0.00 0.01 0.01 85 1015.1
20260903120738 68 255 4.0 8.0 0.00 0.01 0.01 85 1015.1
20260903115736 68 271 4.0 9.0 0.00 0.01 0.01 86 1015.0
20260903114735 68 249 4.0 7.0 0.01 0.01 0.01 87 1015.0
20260903113725 67 273 4.0 9.0 0.01 0.01 0.01 89 1015.2
20260903112728 66 251 3.0 6.0 0.01 0.01 0.01 91 1015.1
20260903111723 65 254 4.0 7.0 0.01 0.01 0.01 92 1015.3
20260903110745 65 254 3.0 6.0 0.01 0.01 0.01 93 1015.3
20260903105737 64 256 4.0 9.0 0.01 0.01 0.01 92 1015.3
20260903104739 64 260 3.0 9.0 0.00 0.00 0.00 91 1015.4
20260903103734 65 261 4.0 9.0 0.00 0.00 0.00 89 1015.3
20260903102725 65 263 5.0 9.0 0.00 0.00 0.00 88 1015.3
20260903101725 64 262 3.0 6.0 0.00 0.00 0.00 88 1015.2
20260903100727 64 258 3.0 6.0 0.00 0.00 0.00 89 1015.0
20260903095737 64 262 2.0 6.0 0.00 0.00 0.00 90 1015.1
20260903094738 63 251 3.0 8.0 0.00 0.00 0.00 90 1015.2
20260903093730 63 250 4.0 9.0 0.00 0.00 0.00 90 1015.2
20260903092739 64 264 5.0 10.0 0.00 0.00 0.00 88 1015.0
20260903091726 65 258 4.0 9.0 0.00 0.00 0.00 84 1015.1
20260903090729 66 260 4.0 8.0 0.00 0.00 0.00 80 1015.1
20260903085726 66 263 3.0 7.0 0.00 0.00 0.00 79 1014.8
20260903084738 66 280 3.0 7.0 0.00 0.00 0.00 79 1014.8
20260903083737 66 252 3.0 6.0 0.00 0.00 0.00 80 1014.8
20260903082734 66 272 4.0 9.0 0.00 0.00 0.00 79 1014.8
20260903081732 66 274 4.0 7.0 0.00 0.00 0.00 79 1014.9
20260903080731 66 257 3.0 8.0 0.00 0.00 0.00 78 1014.9
20260903075729 65 264 3.0 7.0 0.00 0.00 0.00 78 1014.9
20260903074737 65 200 1.0 6.0 0.00 0.00 0.00 78 1014.9
20260903073735 65 234 2.0 6.0 0.00 0.00 0.00 78 1015.0
20260903072737 65 255 3.0 6.0 0.00 0.00 0.00 78 1015.1
20260903071731 65 246 2.0 7.0 0.00 0.00 0.00 78 1015.1
20260903070727 65 261 4.0 7.0 0.00 0.00 0.00 78 1014.9
20260903065722 65 250 3.0 7.0 0.00 0.00 0.00 78 1015.1
20260903064719 65 258 2.0 4.0 0.00 0.00 0.00 76 1015.1
20260903063740 65 249 2.0 6.0 0.00 0.00 0.00 76 1015.1
20260903062736 64 239 3.0 7.0 0.00 0.00 0.00 76 1015.2
20260903061731 64 220 2.0 4.0 0.00 0.00 0.00 76 1015.2
20260903060729 64 246 2.0 7.0 0.00 0.00 0.00 76 1015.3
20260903055727 64 279 2.0 6.0 0.00 0.00 0.00 76 1015.3
20260903054723 64 263 3.0 7.0 0.00 0.00 0.00 77 1015.3
20260903053720 64 271 3.0 6.0 0.00 0.00 0.00 74 1015.2
20260903052743 64 245 2.0 4.0 0.00 0.00 0.00 74 1015.0
20260903051734 63 226 1.0 6.0 0.00 0.00 0.00 77 1014.9
20260903050738 63 146 1.0 4.0 0.00 0.00 0.00 78 1014.8
20260903045727 63 249 1.0 4.0 0.00 0.00 0.00 80 1015.1
20260903044724 62 199 1.0 3.0 0.00 0.00 0.00 81 1015.1
20260903043722 62 177 1.0 3.0 0.00 0.00 0.00 83 1015.1
20260903042718 62 148 1.0 4.0 0.00 0.00 0.00 85 1015.2
20260903041736 61 146 1.0 2.0 0.00 0.00 0.00 87 1015.5
20260903040733 61 172 1.0 3.0 0.00 0.00 0.00 89 1015.7
20260903035735 61 145 1.0 2.0 0.00 0.00 0.00 90 1015.6
20260903034725 61 205 1.0 4.0 0.00 0.00 0.00 90 1015.7
20260903033731 62 274 2.0 8.0 0.00 0.00 0.00 88 1015.9
20260903032722 63 278 4.0 8.0 0.00 0.00 0.00 82 1016.3
20260903031738 64 259 5.0 10.0 0.00 0.00 0.00 76 1016.1
20260903030740 64 265 3.0 7.0 0.00 0.00 0.00 75 1016.1
20260903025737 63 273 1.0 4.0 0.00 0.00 0.00 77 1016.2
20260903024733 63 250 2.0 7.0 0.00 0.00 0.00 78 1016.2
20260903023727 63 225 1.0 6.0 0.00 0.00 0.00 79 1016.2
20260903022723 63 133 1.0 2.0 0.00 0.00 0.00 79 1016.2
20260903021720 62 161 0.0 2.0 0.00 0.00 0.00 80 1016.2
20260903020748 62 162 1.0 3.0 0.00 0.00 0.00 80 1016.3
20260903015744 62 151 0.0 2.0 0.00 0.00 0.00 81 1016.5
20260903014738 63 158 1.0 2.0 0.00 0.00 0.00 80 1016.7
20260903013735 63 225 1.0 2.0 0.00 0.00 0.00 80 1016.8
20260903012732 63 245 2.0 4.0 0.00 0.00 0.00 79 1017.0
20260903011727 63 249 2.0 4.0 0.00 0.00 0.00 78 1017.1
20260903010729 63 257 2.0 4.0 0.00 0.00 0.00 78 1017.2
20260903005741 64 264 5.0 8.0 0.00 0.00 0.00 77 1017.3
20260903004740 65 252 3.0 7.0 0.00 0.00 0.00 73 1017.3
20260903003738 64 281 2.0 7.0 0.00 0.00 0.00 74 1017.2
20260903002736 64 233 2.0 6.0 0.00 0.00 0.00 75 1017.3
20260903001737 64 156 1.0 2.0 0.00 0.00 0.00 76 1017.4
20260903000729 64 147 1.0 3.0 0.00 0.00 0.00 77 1017.4
20260902235719 63 148 1.0 4.0 0.00 0.00 0.00 78 1017.4
20260902234743 63 114 1.0 3.0 0.00 0.00 0.00 78 1017.6
20260902233739 63 135 1.0 3.0 0.00 0.00 0.00 79 1017.6
20260902232734 63 148 1.0 3.0 0.00 0.00 0.00 81 1017.7
20260902231729 62 150 0.0 2.0 0.00 0.00 0.00 82 1017.8
20260902230738 62 168 0.0 2.0 0.00 0.00 0.00 83 1017.9
20260902225723 62 161 0.0 2.0 0.00 0.00 0.00 83 1018.0
20260902224725 62 176 0.0 1.0 0.00 0.00 0.00 83 1018.1
20260902223736 62 186 0.0 1.0 0.00 0.00 0.00 84 1018.2
20260902222742 62 152 0.0 1.0 0.00 0.00 0.00 84 1018.3
20260902221731 62 139 0.0 1.0 0.00 0.00 0.00 85 1018.4
20260902220741 62 157 0.0 1.0 0.00 0.00 0.00 85 1018.5
20260902215725 62 176 0.0 2.0 0.00 0.00 0.00 86 1018.5
20260902214728 62 151 0.0 1.0 0.00 0.00 0.00 86 1018.4
20260902213720 62 177 0.0 1.0 0.00 0.00 0.00 86 1018.4
20260902212741 62 131 0.0 1.0 0.00 0.00 0.00 86 1018.5
20260902211736 62 141 0.0 1.0 0.00 0.00 0.00 86 1018.4
20260902210733 62 120 0.0 1.0 0.00 0.00 0.00 85 1018.6
20260902205733 62 0.0 0.0 0.00 0.00 0.00 84 1018.6
20260902204736 62 149 0.0 1.0 0.00 0.00 0.00 84 1018.6
20260902203725 63 79 0.0 1.0 0.00 0.00 0.00 83 1018.8
20260902202723 63 0.0 0.0 0.00 0.00 0.00 83 1018.9
20260902201739 63 0.0 0.0 0.00 0.00 0.00 82 1018.8
20260902200740 63 0.0 0.0 0.00 0.00 0.00 81 1018.9
20260902195729 63 159 0.0 1.0 0.00 0.00 0.00 81 1018.7
20260902194727 63 154 0.0 1.0 0.00 0.00 0.00 82 1018.8
20260902193728 63 127 0.0 1.0 0.00 0.00 0.00 83 1018.9
20260902192720 63 0.0 0.0 0.00 0.00 0.00 84 1019.0
20260902191718 63 0.0 0.0 0.00 0.00 0.00 84 1018.9
20260902190736 63 0.0 0.0 0.00 0.00 0.00 84 1018.9
20260902185735 63 0.0 0.0 0.00 0.00 0.00 85 1018.9
20260902184737 63 251 1.0 2.0 0.00 0.00 0.00 85 1019.0
20260902183738 63 155 0.0 2.0 0.00 0.00 0.00 86 1018.8
20260902182736 63 143 0.0 1.0 0.00 0.00 0.00 85 1018.8
20260902181727 63 0.0 0.0 0.00 0.00 0.00 85 1018.7
20260902180745 63 0.0 0.0 0.00 0.00 0.00 85 1018.6
20260902175734 64 170 0.0 1.0 0.00 0.00 0.00 84 1018.6
20260902174737 64 161 0.0 1.0 0.00 0.00 0.00 83 1018.5
20260902173726 64 156 0.0 2.0 0.00 0.00 0.00 83 1018.6
20260902172723 64 169 0.0 1.0 0.00 0.00 0.00 81 1018.6
20260902171720 65 152 0.0 2.0 0.00 0.00 0.00 80 1018.7
20260902170717 66 140 0.0 3.0 0.00 0.00 0.00 78 1018.6
20260902165734 67 140 0.0 1.0 0.00 0.00 0.00 76 1018.7
20260902164731 65 0.0 0.0 0.00 0.00 0.00 80 1018.7
20260902163729 65 0.0 0.0 0.00 0.00 0.00 81 1018.8
20260902162725 64 0.0 0.0 0.00 0.00 0.00 81 1018.8
20260902161721 64 0.0 0.0 0.00 0.00 0.00 81 1018.8
20260902160718 64 169 0.0 1.0 0.00 0.00 0.00 80 1018.9
20260902155715 64 197 0.0 1.0 0.00 0.00 0.00 79 1019.0
20260902154732 63 267 1.0 2.0 0.00 0.00 0.00 79 1019.0
20260902153730 64 273 2.0 4.0 0.00 0.00 0.00 79 1019.2
20260902152727 66 303 2.0 6.0 0.00 0.00 0.00 74 1019.1
20260902151724 68 310 2.0 6.0 0.00 0.00 0.00 69 1018.9
20260902150721 68 254 1.0 3.0 0.00 0.00 0.00 68 1018.7
20260902145725 69 256 2.0 4.0 0.00 0.00 0.00 67 1018.8
20260902144735 70 255 1.0 6.0 0.00 0.00 0.00 67 1018.8
20260902143731 70 242 3.0 7.0 0.00 0.00 0.00 65 1018.7
20260902142729 70 251 3.0 6.0 0.00 0.00 0.00 63 1018.7
20260902141726 71 262 2.0 6.0 0.00 0.00 0.00 60 1018.8
20260902140722 73 260 2.0 8.0 0.00 0.00 0.00 60 1018.6
20260902135719 72 266 3.0 8.0 0.00 0.00 0.00 60 1018.6
20260902134716 71 258 3.0 4.0 0.00 0.00 0.00 65 1018.8
20260902133734 70 254 3.0 8.0 0.00 0.00 0.00 66 1018.8
20260902132730 71 268 2.0 6.0 0.00 0.00 0.00 64 1018.7
20260902131727 71 265 2.0 6.0 0.00 0.00 0.00 65 1018.9
20260902130725 69 265 3.0 6.0 0.00 0.00 0.00 67 1018.9
20260902125721 70 258 2.0 6.0 0.00 0.00 0.00 66 1019.0
20260902124718 70 261 3.0 6.0 0.00 0.00 0.00 66 1019.0
20260902123715 69 258 2.0 4.0 0.00 0.00 0.00 67 1019.1
20260902122737 69 256 3.0 6.0 0.00 0.00 0.00 66 1019.2